{"data":{"norad_id":61567,"intl_designator":"2024-185R","name":"QIANFAN-34","alt_names":[],"object_type":"PAYLOAD","status":"ACTIVE","operator":null,"country":"PRC","launch_date":"2024-10-15","launch_site_code":"TAISC","launch_vehicle":null,"mission":null,"orbit_class":"UNKNOWN","rcs_meters":null,"size_class":null,"mass_kg":null,"dimensions":null,"purposes":[],"wikipedia_slug":null,"has_3d_model":false,"image_url":null,"decayed_at":null,"tle_current":{"epoch":"2026-05-25T02:55:47.807040Z","epoch_age_seconds":67802,"freshness":"FRESH","line1":"1 61567U 24185R   26145.12208110  .00000410  00000+0  25771-3 0  9997","line2":"2 61567  88.9808  59.9267 0005913 149.6866 210.4657 14.02451674 92251","mean_motion":14.02451674,"eccentricity":0.0005913,"inclination_deg":88.9808,"raan_deg":59.9267,"arg_perigee_deg":149.6866,"mean_anomaly_deg":210.4657,"bstar":0.00025771,"rev_number":9225,"period_min":102.67733474858,"perigee_km":881.02291230985,"apogee_km":889.6126739482,"semimajor_km":7263.454793129,"source":"CELESTRAK","updated_at":"2026-05-25T13:38:02.417030Z"}}}